FW5647 Weather Reports


time (UTC)temp
C
wind
direction
speed
KPH
gust
KPH
rain 1hr
cm
rain 24hr
cm
rain mn
cm
humidity
%
barometer
mb
20260903084540 21 0 0.0 0.0 0.00 0.38 0.38 96 1014.4
20260903083039 21 0 0.0 0.0 0.00 0.38 0.38 95 1014.2
20260903081542 21 0 0.0 0.0 0.00 0.38 0.38 95 1014.3
20260903080040 21 0 0.0 0.0 0.00 0.38 0.38 95 1014.4
20260903074544 21 0 0.0 0.0 0.00 0.38 0.38 95 1014.3
20260903073050 21 247 0.0 1.6 0.00 0.38 0.38 95 1014.4
20260903071541 21 0 0.0 3.2 0.00 0.38 0.38 95 1014.6
20260903070048 21 0 0.0 0.0 0.00 0.38 0.38 95 1014.5
20260903064543 21 0 0.0 0.0 0.00 0.38 0.38 95 1014.0
20260903063047 21 0 0.0 0.0 0.00 0.38 0.38 94 1014.1
20260903061551 21 0 0.0 0.0 0.00 0.38 0.38 94 1014.0
20260903060043 21 0 0.0 0.0 0.00 0.38 0.38 94 1014.2
20260903054553 22 0 0.0 0.0 0.00 0.38 0.38 94 1014.1
20260903053051 22 0 0.0 0.0 0.00 0.38 0.38 93 1014.1
20260903051544 22 0 0.0 0.0 0.00 0.38 0.38 93 1014.0
20260903050049 22 0 0.0 0.0 0.38 0.38 0.38 93 1014.0
20260903044554 22 0 0.0 0.0 0.38 0.38 0.38 92 1014.1
20260903043047 22 0 0.0 0.0 0.38 0.38 0.38 90 1013.7
20260903041543 23 0 0.0 25.7 0.38 0.38 0.38 88 1013.6
20260903040049 23 0 0.0 11.3 0.00 0.00 0.00 81 1013.9
20260903034551 23 0 0.0 3.2 0.00 0.00 0.00 81 1013.9
20260903033045 23 127 0.0 8.0 0.00 0.00 0.00 79 1014.1
20260903031622 23 0 0.0 8.0 0.00 0.00 0.00 78 1014.2
20260903030054 26 340 11.3 25.7 0.00 0.00 0.00 73 1014.2
20260903024548 27 0 1.6 8.0 0.00 0.00 0.00 80 1013.2
20260903023044 26 257 1.6 6.4 0.00 0.00 0.00 81 1012.3
20260903021543 26 0 0.0 0.0 0.00 0.00 0.00 83 1012.3
20260903020052 26 0 0.0 0.0 0.00 0.00 0.00 82 1013.5
20260903014555 26 0 0.0 0.0 0.00 0.00 0.00 81 1013.5
20260903013044 26 0 0.0 0.0 0.00 0.00 0.00 80 1013.4
20260903011556 27 0 0.0 0.0 0.00 0.00 0.00 79 1013.3
20260903010050 27 0 0.0 0.0 0.00 0.00 0.00 78 1013.0
20260903004550 27 0 0.0 1.6 0.00 0.00 0.00 77 1012.9
20260903003046 28 0 0.0 1.6 0.00 0.00 0.00 76 1012.8
20260903001544 28 0 0.0 0.0 0.00 0.00 0.00 74 1012.6
20260903000047 29 0 0.0 0.0 0.00 0.00 0.00 71 1012.7
20260902234554 30 0 0.0 1.6 0.00 0.00 0.00 70 1012.8
20260902233048 31 0 0.0 8.0 0.00 0.00 0.00 67 1012.7
20260902231549 31 264 0.0 12.9 0.00 0.00 0.00 64 1012.7
20260902230046 32 262 1.6 12.9 0.00 0.00 0.00 64 1012.6
20260902224551 32 245 1.6 12.9 0.00 0.00 0.00 63 1012.7
20260902223046 32 245 6.4 14.5 0.00 0.00 0.00 62 1012.7
20260902221541 32 226 1.6 19.3 0.00 0.00 0.00 61 1012.7
20260902220041 33 265 4.8 22.5 0.00 0.00 0.00 60 1012.2
20260902214547 33 219 3.2 14.5 0.00 0.00 0.00 60 1012.7
20260902213048 33 226 1.6 22.5 0.00 0.00 0.00 59 1013.0
20260902211547 33 247 3.2 29.0 0.00 0.00 0.00 58 1013.2
20260902210046 33 226 4.8 22.5 0.00 0.00 0.00 58 1013.2
20260902204542 33 201 4.8 17.7 0.00 0.00 0.00 60 1013.2
20260902203058 33 218 6.4 22.5 0.00 0.00 0.00 61 1013.3
20260902201545 33 188 4.8 16.1 0.00 0.00 0.00 57 1013.6
20260902200053 33 184 3.2 24.1 0.00 0.00 0.00 56 1013.6
20260902194544 33 244 6.4 19.3 0.00 0.00 0.00 57 1013.9
20260902193042 33 101 3.2 24.1 0.00 0.00 0.00 57 1014.2
20260902191550 33 227 8.0 19.3 0.00 0.00 0.00 58 1014.3
20260902190049 33 261 8.0 22.5 0.00 0.00 0.00 59 1014.3
20260902184550 33 185 4.8 20.9 0.00 0.00 0.00 61 1014.4
20260902183107 33 244 3.2 16.1 0.00 0.00 0.00 59 1014.4
20260902181543 33 328 6.4 16.1 0.00 0.00 0.00 58 1014.6
20260902180042 32 177 8.0 16.1 0.00 0.00 0.00 59 1014.8
20260902174540 32 271 6.4 12.9 0.00 0.00 0.00 61 1015.0
20260902173044 33 308 3.2 12.9 0.00 0.00 0.00 61 1015.3
20260902171541 32 331 3.2 17.7 0.00 0.00 0.00 62 1015.3
20260902170046 32 234 3.2 9.7 0.00 0.00 0.00 62 1015.7
20260902164543 32 285 4.8 14.5 0.00 0.00 0.00 63 1015.7
20260902163057 32 252 4.8 11.3 0.00 0.00 0.00 63 1015.6
20260902161550 31 262 8.0 17.7 0.00 0.00 0.00 66 1015.9
20260902160039 31 297 4.8 17.7 0.00 0.00 0.00 66 1015.8
20260902154538 31 282 3.2 12.9 0.00 0.00 0.00 67 1015.8
20260902153042 30 141 8.0 17.7 0.00 0.00 0.00 69 1015.8
20260902151548 30 273 3.2 14.5 0.00 0.00 0.00 71 1015.6
20260902150043 29 219 4.8 11.3 0.00 0.00 0.00 73 1015.6
20260902144543 29 278 3.2 8.0 0.00 0.00 0.00 74 1015.7
20260902143042 28 240 3.2 11.3 0.00 0.00 0.00 75 1015.4
20260902141547 28 230 3.2 14.5 0.00 0.00 0.00 77 1015.5
20260902140047 28 220 3.2 11.3 0.00 0.00 0.00 77 1015.5
20260902134547 27 207 1.6 8.0 0.00 0.00 0.00 81 1015.5
20260902133040 26 233 1.6 9.7 0.00 0.00 0.00 83 1015.7
20260902131542 26 273 3.2 11.3 0.00 0.00 0.00 85 1015.6
20260902130041 25 248 0.0 8.0 0.00 0.00 0.00 88 1015.5
20260902124541 24 0 1.6 9.7 0.00 0.00 0.00 90 1015.6
20260902123101 23 218 0.0 4.8 0.00 0.00 0.00 93 1015.6
20260902121553 23 0 0.0 1.6 0.00 0.00 0.00 95 1015.3
20260902120044 22 0 0.0 1.6 0.00 0.00 0.00 95 1015.5
20260902114541 22 0 0.0 1.6 0.00 0.00 0.00 94 1015.4
20260902113040 22 0 0.0 3.2 0.00 0.00 0.00 94 1015.5
20260902111546 23 200 0.0 1.6 0.00 0.00 0.00 94 1015.3
20260902110042 23 0 0.0 3.2 0.00 0.00 0.00 94 1015.9
20260902104542 23 255 1.6 8.0 0.00 0.00 0.00 95 1015.6
20260902103043 22 0 0.0 1.6 0.00 0.00 0.00 95 1015.6
20260902101538 22 0 0.0 1.6 0.00 0.00 0.00 95 1015.3
20260902100038 23 0 0.0 3.2 0.00 0.00 0.00 95 1015.1
20260902094541 22 0 0.0 1.6 0.00 0.00 0.00 95 1015.0
20260902093040 22 0 0.0 0.0 0.00 0.00 0.00 94 1015.2
20260902091539 23 0 0.0 0.0 0.00 0.00 0.00 94 1015.1
20260902090040 23 0 0.0 1.6 0.00 0.00 0.00 94 1015.0